START_TIME,STEP,MOV.,M15,t_acc.,M20,t_acc.
1981-08-25 09:00:44.880 ,1,0,0.,24.0,0.,24.0
1981-08-25 09:01:08.880 ,2,1,0.,24.0,0.,24.0
1981-08-25 09:01:32.880 ,2,0,0.,24.0,0.,24.0
1981-08-25 09:01:56.880 ,3,1,0.,24.0,0.,24.0
1981-08-25 09:02:20.880 ,3,0,0.,24.0,0.,24.0
1981-08-25 09:02:44.880 ,4,1,0.,24.0,0.,24.0
1981-08-25 09:03:08.880 ,4,0,0.,24.0,0.,24.0
1981-08-25 09:03:32.880 ,5,1,0.,24.0,0.,24.0
1981-08-25 09:03:56.880 ,5,0,0.,24.0,0.,24.0
1981-08-25 09:04:20.880 ,6,1,0.,24.0,0.,24.0
1981-08-25 09:04:44.880 ,6,0,0.,24.0,0.,24.0
1981-08-25 09:05:08.880 ,7,1,0.,24.0,0.,24.0
1981-08-25 09:05:32.880 ,7,0,0.,24.0,0.,24.0
1981-08-25 09:05:56.880 ,7,1,0.,24.0,0.,24.0
1981-08-25 09:06:20.880 ,7,0,0.,24.0,0.,24.0
1981-08-25 09:06:44.880 ,6,1,0.,24.0,0.,24.0
1981-08-25 09:07:08.880 ,6,0,0.,24.0,0.,24.0
1981-08-25 09:07:32.880 ,5,1,0.,24.0,0.,24.0
1981-08-25 09:07:56.880 ,5,0,0.,24.0,0.,24.0
1981-08-25 09:08:20.880 ,4,1,0.,24.0,0.,24.0
1981-08-25 09:08:44.880 ,4,0,0.,24.0,0.,24.0
1981-08-25 09:09:08.880 ,3,1,0.,24.0,0.,24.0
1981-08-25 09:09:32.880 ,3,0,0.,24.0,0.,24.0
1981-08-25 09:09:56.880 ,2,1,0.,24.0,0.,24.0
1981-08-25 09:10:20.880 ,2,0,0.,24.0,0.,24.0
1981-08-25 09:10:44.880 ,1,1,0.,24.0,0.,24.0
1981-08-25 09:11:08.880 ,1,0,0.,24.0,0.,24.0
1981-08-25 09:11:32.880 ,0,1,0.,24.0,0.,24.0
1981-08-25 09:11:56.880 ,0,0,0.,24.0,0.,24.0
1981-08-25 09:12:20.880 ,0,1,0.,24.0,0.,24.0
1981-08-25 09:12:44.880 ,0,0,0.,24.0,0.,24.0
1981-08-25 09:13:08.880 ,1,1,0.,24.0,0.,24.0
1981-08-25 09:13:32.880 ,1,0,0.,24.0,0.,24.0
1981-08-25 09:13:56.880 ,2,1,0.,24.0,0.,24.0
1981-08-25 09:14:20.880 ,2,0,0.,24.0,0.,24.0
1981-08-25 09:14:44.880 ,3,1,0.,24.0,0.,24.0
1981-08-25 09:15:08.880 ,3,0,0.,24.0,0.,24.0
1981-08-25 09:15:32.880 ,4,1,0.,24.0,0.,24.0
1981-08-25 09:15:56.880 ,4,0,0.,24.0,0.,24.0
1981-08-25 09:16:20.880 ,5,1,0.,24.0,0.,24.0
1981-08-25 09:16:44.880 ,5,0,0.,24.0,0.,24.0
1981-08-25 09:17:08.880 ,6,1,0.,24.0,0.,24.0
1981-08-25 09:17:32.880 ,6,0,0.,24.0,0.,24.0
1981-08-25 09:17:56.880 ,7,1,0.,24.0,0.,24.0
1981-08-25 09:18:20.880 ,7,0,0.,24.0,0.,24.0
1981-08-25 09:18:44.880 ,7,1,0.,24.0,0.,24.0
1981-08-25 09:19:08.880 ,7,0,0.,24.0,0.,24.0
1981-08-25 09:19:32.880 ,6,1,0.,24.0,0.,24.0
1981-08-25 09:19:56.880 ,6,0,0.,24.0,0.,24.0
1981-08-25 09:20:20.880 ,5,1,0.,24.0,0.,24.0
1981-08-25 09:20:44.880 ,5,0,0.,24.0,0.,24.0
1981-08-25 09:21:08.880 ,4,1,0.,24.0,0.,24.0
1981-08-25 09:21:32.880 ,4,0,0.,24.0,0.,24.0
1981-08-25 09:21:56.880 ,3,1,0.,24.0,0.,24.0
1981-08-25 09:22:20.880 ,3,0,0.,24.0,0.,24.0
1981-08-25 09:22:44.880 ,2,1,0.,24.0,0.,24.0
1981-08-25 09:23:08.880 ,2,0,0.,24.0,0.,24.0
1981-08-25 09:23:32.880 ,1,1,0.,24.0,0.,24.0
1981-08-25 09:23:56.880 ,1,0,0.,24.0,0.,24.0
1981-08-25 09:24:20.880 ,0,1,0.,24.0,0.,24.0
1981-08-25 09:24:44.880 ,0,0,0.,24.0,0.,24.0
1981-08-25 09:25:08.880 ,0,1,0.,24.0,0.,24.0
1981-08-25 09:25:32.880 ,0,0,0.,24.0,0.,24.0
1981-08-25 09:25:56.880 ,1,1,0.,24.0,0.,24.0
1981-08-25 09:26:20.880 ,1,0,0.,24.0,0.,24.0
1981-08-25 09:26:44.880 ,2,1,0.,24.0,0.,24.0
1981-08-25 09:27:08.880 ,2,0,0.,24.0,0.,24.0
1981-08-25 09:27:32.880 ,3,1,0.,24.0,0.,24.0
1981-08-25 09:27:56.880 ,3,0,0.,24.0,0.,24.0
1981-08-25 09:28:20.880 ,4,1,0.,24.0,0.,24.0
1981-08-25 09:28:44.880 ,4,0,0.,24.0,0.,24.0
1981-08-25 09:29:08.880 ,5,1,0.,24.0,0.,24.0
1981-08-25 09:29:32.880 ,5,0,0.,24.0,0.,24.0
1981-08-25 09:29:56.880 ,6,1,0.,24.0,0.,24.0
1981-08-25 09:30:20.880 ,6,0,0.,24.0,0.,24.0
1981-08-25 09:30:44.880 ,7,1,0.,24.0,0.,24.0
1981-08-25 09:31:08.880 ,7,0,0.,24.0,0.,24.0
1981-08-25 09:31:32.880 ,7,1,0.,24.0,0.,24.0
1981-08-25 09:31:56.880 ,7,0,0.,24.0,0.,24.0
1981-08-25 09:32:20.880 ,6,1,0.,24.0,0.,24.0
1981-08-25 09:32:44.880 ,6,0,0.,24.0,0.,24.0
1981-08-25 09:33:08.880 ,5,1,0.,24.0,0.,24.0
1981-08-25 09:33:32.880 ,5,0,0.,24.0,0.,24.0
1981-08-25 09:33:56.880 ,4,1,0.,24.0,0.,24.0
1981-08-25 09:34:20.880 ,4,0,0.,24.0,0.,24.0
1981-08-25 09:34:44.880 ,0,0,,0,,0
1981-08-25 09:35:08.880 ,0,0,,0,,0
1981-08-25 09:35:08.880 ,3,0,0.,24.0,0.,24.0
1981-08-25 09:35:32.880 ,2,1,0.,24.0,0.,24.0
1981-08-25 09:35:56.880 ,2,0,0.,24.0,0.,24.0
1981-08-25 09:36:20.880 ,1,1,0.,24.0,0.,24.0
1981-08-25 09:36:44.880 ,1,0,0.,24.0,0.,24.0
1981-08-25 09:37:08.880 ,0,1,0.,24.0,0.,24.0
1981-08-25 09:37:32.880 ,0,0,0.,24.0,0.,24.0
1981-08-25 09:38:44.880 ,0,0,0.,24.0,0.,24.0
1981-08-25 09:39:08.880 ,0,0,0.,24.0,0.,24.0
1981-08-25 09:39:32.880 ,2,1,0.,24.0,0.,24.0
1981-08-25 09:39:56.880 ,2,0,0.,24.0,0.,24.0
1981-08-25 09:40:20.880 ,3,1,0.,24.0,0.,24.0
1981-08-25 09:40:44.880 ,3,0,0.,24.0,0.,24.0
1981-08-25 09:41:08.880 ,4,1,0.,24.0,0.,24.0
1981-08-25 09:41:32.880 ,4,0,0.,24.0,0.,24.0
1981-08-25 09:41:56.880 ,5,1,0.,24.0,0.,24.0
1981-08-25 09:42:20.880 ,5,0,0.,24.0,0.,24.0
1981-08-25 09:42:44.880 ,6,1,0.,24.0,0.,24.0
1981-08-25 09:43:08.880 ,6,0,0.,24.0,0.,24.0
1981-08-25 09:43:32.880 ,7,1,0.,24.0,0.,24.0
1981-08-25 09:43:56.880 ,7,0,0.,24.0,0.,24.0
1981-08-25 09:44:20.880 ,7,1,0.,24.0,0.,24.0
1981-08-25 09:44:44.880 ,7,0,0.,24.0,0.,24.0
1981-08-25 09:45:08.880 ,6,1,0.,24.0,0.,24.0
1981-08-25 09:45:32.880 ,6,0,0.,24.0,0.,24.0
1981-08-25 09:45:56.880 ,5,1,0.,24.0,0.,24.0
1981-08-25 09:46:20.880 ,5,0,0.,24.0,0.,24.0
1981-08-25 09:46:44.880 ,4,1,0.,24.0,0.,24.0
1981-08-25 09:47:08.880 ,4,0,0.,24.0,0.,24.0
1981-08-25 09:47:32.880 ,3,1,0.,24.0,0.,24.0
1981-08-25 09:47:56.880 ,3,0,0.,24.0,0.,24.0
1981-08-25 09:48:20.880 ,2,1,0.,24.0,0.,24.0
1981-08-25 09:48:44.880 ,2,0,0.,24.0,0.,24.0
1981-08-25 09:49:08.880 ,1,1,0.,24.0,0.,24.0
1981-08-25 09:49:32.880 ,1,0,0.,24.0,0.,24.0
1981-08-25 09:49:56.880 ,0,1,0.,24.0,0.,24.0
1981-08-25 09:50:20.880 ,0,0,0.,24.0,0.,24.0
1981-08-25 09:50:44.880 ,0,1,0.,24.0,0.,24.0
1981-08-25 09:51:08.880 ,0,0,0.,24.0,0.,24.0
1981-08-25 09:51:32.880 ,1,1,0.,24.0,0.,24.0
1981-08-25 09:51:56.880 ,1,0,0.,24.0,0.,24.0
1981-08-25 09:52:20.880 ,2,1,0.,24.0,0.,24.0
1981-08-25 09:52:44.880 ,2,0,0.,24.0,0.,24.0
1981-08-25 09:53:08.880 ,3,1,0.,24.0,0.,24.0
1981-08-25 09:53:32.880 ,3,0,0.,24.0,0.,24.0
1981-08-25 09:53:56.880 ,4,1,0.,24.0,0.,24.0
1981-08-25 09:54:20.880 ,4,0,0.,24.0,0.,24.0
1981-08-25 09:54:44.880 ,5,1,0.,24.0,0.,24.0
1981-08-25 09:55:08.880 ,5,0,0.,24.0,0.,24.0
1981-08-25 09:55:32.880 ,6,1,0.,24.0,0.,24.0
1981-08-25 09:55:56.880 ,6,0,0.,24.0,0.,24.0
1981-08-25 09:56:20.880 ,7,1,0.,24.0,0.,24.0
1981-08-25 09:56:44.880 ,7,0,0.,24.0,0.,24.0
1981-08-25 09:57:08.880 ,7,1,0.,24.0,0.,24.0
1981-08-25 09:57:32.880 ,7,0,0.,24.0,0.,24.0
1981-08-25 09:57:56.880 ,6,1,0.,24.0,0.,24.0
1981-08-25 09:58:20.880 ,6,0,0.,24.0,0.,24.0
1981-08-25 09:58:44.880 ,5,1,0.,24.0,0.,24.0
1981-08-25 09:59:08.880 ,5,0,0.,24.0,0.,24.0
1981-08-25 09:59:32.880 ,4,1,0.,24.0,0.,24.0
1981-08-25 09:59:56.880 ,4,0,0.,24.0,0.,24.0
1981-08-25 10:00:20.880 ,3,1,0.,24.0,0.,24.0
1981-08-25 10:00:44.880 ,3,0,0.,24.0,0.,24.0
1981-08-25 10:01:08.880 ,2,1,0.,24.0,0.,24.0
1981-08-25 10:01:32.880 ,2,0,0.,24.0,0.,24.0
1981-08-25 10:01:56.880 ,1,1,0.,24.0,0.,24.0
1981-08-25 10:02:20.880 ,1,0,0.,24.0,0.,24.0
1981-08-25 10:02:44.880 ,0,1,0.,24.0,0.,24.0
1981-08-25 10:03:08.880 ,0,0,0.,24.0,0.,24.0
1981-08-25 10:03:32.880 ,0,1,0.,24.0,0.,24.0
1981-08-25 10:03:56.880 ,0,0,0.,24.0,0.,24.0
1981-08-25 10:04:20.880 ,1,1,0.,24.0,0.,24.0
1981-08-25 10:04:44.880 ,1,0,0.,24.0,0.,24.0
1981-08-25 10:05:08.880 ,2,1,0.,24.0,0.,24.0
1981-08-25 10:05:32.880 ,0,0,0.,24.0,0.,24.0
1981-08-25 10:06:01.680 ,0,0,0.,24.0,0.,24.0
1981-08-25 10:06:20.880 ,0,0,0.,24.0,0.,24.0
1981-08-25 10:06:44.870 ,4,1,0.,24.0,0.,24.0
1981-08-25 10:07:08.870 ,4,0,0.,24.0,0.,24.0
1981-08-25 10:07:32.870 ,5,1,0.,24.0,0.,24.0
1981-08-25 10:07:56.870 ,5,0,0.,24.0,0.,24.0
1981-08-25 10:08:20.870 ,6,1,0.,24.0,0.,24.0
1981-08-25 10:08:44.870 ,6,0,0.,24.0,0.,24.0
1981-08-25 10:09:08.870 ,7,1,0.,24.0,0.,24.0
1981-08-25 10:09:32.870 ,7,0,0.,24.0,0.,24.0
1981-08-25 10:09:56.870 ,7,1,0.,24.0,0.,24.0
1981-08-25 10:10:20.870 ,7,0,0.,24.0,0.,24.0
1981-08-25 10:10:44.870 ,6,1,0.,24.0,0.,24.0
1981-08-25 10:11:08.870 ,6,0,0.,24.0,0.,24.0
1981-08-25 10:11:32.870 ,5,1,0.,24.0,0.,24.0
1981-08-25 10:11:56.870 ,5,0,0.,24.0,0.,24.0
1981-08-25 10:12:20.870 ,4,1,0.,24.0,0.,24.0
1981-08-25 10:12:44.870 ,4,0,0.,24.0,0.,24.0
1981-08-25 10:13:08.870 ,3,1,0.,24.0,0.,24.0
1981-08-25 10:13:32.870 ,3,0,0.,24.0,0.,24.0
1981-08-25 10:13:56.870 ,2,1,0.,24.0,0.,24.0
1981-08-25 10:14:20.870 ,2,0,0.,24.0,0.,24.0
1981-08-25 10:14:44.870 ,1,1,0.,24.0,0.,24.0
1981-08-25 10:15:08.870 ,1,0,0.,24.0,0.,24.0
1981-08-25 10:15:32.870 ,0,1,0.,24.0,0.,24.0
1981-08-25 10:15:56.870 ,0,0,0.,24.0,0.,24.0
1981-08-25 10:16:20.870 ,0,1,0.,24.0,0.,24.0
1981-08-25 10:16:44.870 ,0,0,0.,24.0,0.,24.0
1981-08-25 10:17:08.870 ,1,1,0.,24.0,0.,24.0
1981-08-25 10:17:32.870 ,1,0,0.,24.0,0.,24.0
1981-08-25 10:17:56.870 ,2,1,0.,24.0,0.,24.0
1981-08-25 10:18:20.870 ,2,0,0.,24.0,0.,24.0
1981-08-25 10:18:44.870 ,3,1,0.,24.0,0.,24.0
1981-08-25 10:19:08.870 ,3,0,0.,24.0,0.,24.0
1981-08-25 10:19:32.870 ,4,1,0.,24.0,0.,24.0
1981-08-25 10:19:56.870 ,4,0,0.,24.0,0.,24.0
1981-08-25 10:20:20.870 ,5,1,0.,24.0,0.,24.0
1981-08-25 10:20:44.870 ,5,0,0.,24.0,0.,24.0
1981-08-25 10:21:08.870 ,6,1,0.,24.0,0.,24.0
1981-08-25 10:21:32.870 ,6,0,0.,24.0,0.,24.0
1981-08-25 10:21:56.870 ,7,1,0.,24.0,0.,24.0
1981-08-25 10:22:20.870 ,7,0,0.,24.0,0.,24.0
1981-08-25 10:22:44.870 ,7,1,0.,24.0,0.,24.0
1981-08-25 10:23:08.870 ,7,0,0.,24.0,0.,24.0
1981-08-25 10:23:32.870 ,6,1,0.,24.0,0.,24.0
1981-08-25 10:23:56.870 ,6,0,0.,24.0,0.,24.0
1981-08-25 10:24:20.870 ,5,1,0.,24.0,0.,24.0
1981-08-25 10:24:44.870 ,5,0,0.,24.0,0.,24.0
1981-08-25 10:25:08.870 ,4,1,0.,24.0,0.,24.0
1981-08-25 10:25:32.870 ,4,0,0.,24.0,0.,24.0
1981-08-25 10:25:56.870 ,3,1,0.,24.0,0.,24.0
1981-08-25 10:26:20.870 ,3,0,0.,24.0,0.,24.0
1981-08-25 10:26:44.870 ,2,1,0.,24.0,0.,24.0
1981-08-25 10:27:08.870 ,2,0,0.,24.0,0.,24.0
1981-08-25 10:27:32.870 ,1,1,0.,24.0,0.,24.0
1981-08-25 10:27:56.870 ,1,0,0.,24.0,0.,24.0
1981-08-25 10:28:20.870 ,0,1,0.,24.0,0.,24.0
1981-08-25 10:28:44.870 ,0,0,0.,24.0,0.,24.0
1981-08-25 10:29:08.870 ,0,1,0.,24.0,0.,24.0
1981-08-25 10:29:32.870 ,0,0,0.,24.0,0.,24.0
1981-08-25 10:29:56.870 ,1,1,0.,24.0,0.,24.0
1981-08-25 10:30:20.870 ,1,0,0.,24.0,0.,24.0
1981-08-25 10:30:44.870 ,2,1,0.,24.0,0.,24.0
1981-08-25 10:31:08.870 ,2,0,0.,24.0,0.,24.0
1981-08-25 10:31:32.870 ,3,1,0.,24.0,0.,24.0
1981-08-25 10:31:56.870 ,3,0,0.,24.0,0.,24.0
1981-08-25 10:32:20.870 ,4,1,0.,24.0,0.,24.0
1981-08-25 10:32:44.870 ,4,0,0.,24.0,0.,24.0
1981-08-25 10:33:08.870 ,5,1,0.,24.0,0.,24.0
1981-08-25 10:33:32.870 ,5,0,0.,24.0,0.,24.0
1981-08-25 10:33:56.870 ,6,1,0.,24.0,0.,24.0
1981-08-25 10:34:20.870 ,6,0,0.,24.0,0.,24.0
1981-08-25 10:34:44.870 ,7,1,0.,24.0,0.,24.0
1981-08-25 10:35:08.870 ,7,0,0.,24.0,0.,24.0
1981-08-25 10:35:32.870 ,7,1,0.,24.0,0.,24.0
1981-08-25 10:35:56.870 ,7,0,0.,24.0,0.,24.0
1981-08-25 10:36:20.870 ,6,1,0.,24.0,0.,24.0
1981-08-25 10:36:44.870 ,6,0,0.,24.0,0.,24.0
1981-08-25 10:37:08.870 ,5,1,0.,24.0,0.,24.0
1981-08-25 10:37:32.870 ,5,0,0.,24.0,0.,24.0
1981-08-25 10:37:56.870 ,4,1,0.,24.0,0.,24.0
1981-08-25 10:38:20.870 ,4,0,0.,24.0,0.,24.0
1981-08-25 10:38:44.870 ,3,1,0.,24.0,0.,24.0
1981-08-25 10:39:08.870 ,3,0,0.,24.0,0.,24.0
1981-08-25 10:39:32.870 ,2,1,0.,24.0,0.,24.0
1981-08-25 10:39:56.870 ,2,0,0.,24.0,0.,24.0
1981-08-25 10:40:20.870 ,1,1,0.,24.0,0.,24.0
1981-08-25 10:40:44.870 ,1,0,0.,24.0,0.,24.0
1981-08-25 10:41:08.870 ,0,1,0.,24.0,0.,24.0
1981-08-25 10:41:32.870 ,0,0,0.,24.0,0.,24.0
1981-08-25 10:41:56.870 ,0,1,0.,24.0,0.,24.0
1981-08-25 10:42:20.870 ,0,0,0.,24.0,0.,24.0
1981-08-25 10:42:44.870 ,1,1,0.,24.0,0.,24.0
1981-08-25 10:43:08.870 ,1,0,0.,24.0,0.,24.0
1981-08-25 10:43:32.870 ,2,1,0.,24.0,0.,24.0
1981-08-25 10:43:56.870 ,2,0,0.,24.0,0.,24.0
1981-08-25 10:44:20.870 ,3,1,0.,24.0,0.,24.0
1981-08-25 10:44:44.870 ,3,0,0.,24.0,0.,24.0
1981-08-25 10:45:08.870 ,4,1,0.,24.0,0.,24.0
1981-08-25 10:45:32.870 ,4,0,0.,24.0,0.,24.0
1981-08-25 10:45:56.870 ,5,1,0.,24.0,0.,24.0
1981-08-25 10:46:20.870 ,5,0,0.,24.0,0.,24.0
1981-08-25 10:46:44.870 ,6,1,0.,24.0,0.,24.0
1981-08-25 10:47:08.870 ,6,0,0.,24.0,0.,24.0
1981-08-25 10:47:32.870 ,7,1,0.,24.0,0.,24.0
1981-08-25 10:47:56.870 ,7,0,0.,24.0,0.,24.0
1981-08-25 10:48:20.870 ,7,1,0.,24.0,0.,24.0
1981-08-25 10:48:44.870 ,7,0,0.,24.0,0.,24.0
1981-08-25 10:49:08.870 ,6,1,0.,24.0,0.,24.0
1981-08-25 10:49:32.870 ,6,0,0.,24.0,0.,24.0
1981-08-25 10:49:56.870 ,5,1,0.,24.0,0.,24.0
1981-08-25 10:50:20.870 ,5,0,0.,24.0,0.,24.0
1981-08-25 10:50:44.870 ,4,1,0.,24.0,0.,24.0
1981-08-25 10:51:08.870 ,4,0,0.,24.0,0.,24.0
1981-08-25 10:51:32.870 ,3,1,0.,24.0,0.,24.0
1981-08-25 10:51:56.870 ,3,0,0.,24.0,0.,24.0
1981-08-25 10:52:20.870 ,2,1,0.,24.0,0.,24.0
1981-08-25 10:52:44.870 ,2,0,0.,24.0,0.,24.0
1981-08-25 10:53:08.870 ,1,1,0.,24.0,0.,24.0
1981-08-25 10:53:32.870 ,1,0,0.,24.0,0.,24.0
1981-08-25 10:53:56.870 ,0,1,0.,24.0,0.,24.0
1981-08-25 10:54:20.870 ,0,0,0.,24.0,0.,24.0
1981-08-25 10:54:44.870 ,0,1,0.,24.0,0.,24.0
1981-08-25 10:55:08.870 ,0,0,0.,24.0,0.,24.0
1981-08-25 10:55:32.870 ,1,1,0.,24.0,0.,24.0
1981-08-25 10:55:56.870 ,1,0,0.,24.0,0.,24.0
1981-08-25 10:57:08.870 ,0,0,0.,24.0,0.,24.0
1981-08-25 10:57:32.870 ,0,0,0.,24.0,0.,24.0
1981-08-25 10:57:56.870 ,4,1,0.,24.0,0.,24.0
1981-08-25 10:58:20.870 ,4,0,0.,24.0,0.,24.0
1981-08-25 10:58:44.870 ,5,1,0.,24.0,0.,24.0
1981-08-25 10:59:08.870 ,5,0,0.,24.0,0.,24.0
1981-08-25 10:59:32.870 ,6,1,0.,24.0,0.,24.0
1981-08-25 10:59:56.870 ,6,0,0.,24.0,0.,24.0
1981-08-25 11:00:20.870 ,7,1,0.,24.0,0.,24.0
1981-08-25 11:00:44.870 ,7,0,0.,24.0,0.,24.0
1981-08-25 11:01:08.870 ,7,1,0.,24.0,0.,24.0
1981-08-25 11:01:32.870 ,7,0,0.,24.0,0.,24.0
1981-08-25 11:01:56.870 ,6,1,0.,24.0,0.,24.0
1981-08-25 11:02:20.870 ,6,0,0.,24.0,0.,24.0
1981-08-25 11:02:44.870 ,5,1,0.,24.0,0.,24.0
1981-08-25 11:03:08.870 ,5,0,0.,24.0,0.,24.0
1981-08-25 11:03:32.870 ,4,1,0.,24.0,0.,24.0
1981-08-25 11:03:56.870 ,4,0,0.,24.0,0.,24.0
1981-08-25 11:04:20.870 ,3,1,0.,24.0,0.,24.0
1981-08-25 11:04:44.870 ,3,0,0.,24.0,0.,24.0
1981-08-25 11:05:08.870 ,2,1,0.,24.0,0.,24.0
1981-08-25 11:05:32.870 ,2,0,0.,24.0,0.,24.0
1981-08-25 11:05:56.870 ,1,1,0.,24.0,0.,24.0
1981-08-25 11:06:20.870 ,1,0,0.,24.0,0.,24.0
1981-08-25 11:06:44.870 ,0,1,0.,24.0,0.,24.0
1981-08-25 11:07:08.870 ,0,0,0.,24.0,0.,24.0
1981-08-25 11:07:32.870 ,0,1,0.,24.0,0.,24.0
1981-08-25 11:07:56.870 ,0,0,0.,24.0,0.,24.0
1981-08-25 11:08:20.870 ,1,1,0.,24.0,0.,24.0
1981-08-25 11:08:44.870 ,1,0,0.,24.0,0.,24.0
1981-08-25 11:09:08.870 ,2,1,0.,24.0,0.,24.0
1981-08-25 11:09:32.870 ,2,0,0.,24.0,0.,24.0
1981-08-25 11:09:56.870 ,3,1,0.,24.0,0.,24.0
1981-08-25 11:10:20.870 ,3,0,0.,24.0,0.,24.0
1981-08-25 11:11:32.870 ,0,0,0.,24.0,0.,24.0
1981-08-25 11:11:56.870 ,0,0,0.,24.0,0.,24.0
1981-08-25 11:12:20.870 ,6,1,0.,24.0,0.,24.0
1981-08-25 11:12:44.870 ,6,0,0.,24.0,0.,24.0
1981-08-25 11:13:08.870 ,7,1,0.,24.0,0.,24.0
1981-08-25 11:13:32.870 ,7,0,0.,24.0,0.,24.0
1981-08-25 11:13:56.870 ,7,1,0.,24.0,0.,24.0
1981-08-25 11:14:20.870 ,7,0,0.,24.0,0.,24.0
1981-08-25 11:14:44.870 ,6,1,0.,24.0,0.,24.0
1981-08-25 11:15:08.870 ,6,0,0.,24.0,0.,24.0
1981-08-25 11:15:32.870 ,5,1,0.,24.0,0.,24.0
1981-08-25 11:15:56.870 ,5,0,0.,24.0,0.,24.0
1981-08-25 11:16:20.870 ,4,1,0.,24.0,0.,24.0
1981-08-25 11:16:44.870 ,4,0,0.,24.0,0.,24.0
1981-08-25 11:17:08.870 ,3,1,0.,24.0,0.,24.0
1981-08-25 11:17:32.870 ,3,0,0.,24.0,0.,24.0
1981-08-25 11:17:56.870 ,2,1,0.,24.0,0.,24.0
1981-08-25 11:18:20.870 ,2,0,0.,24.0,0.,24.0
1981-08-25 11:18:44.870 ,1,1,0.,24.0,0.,24.0
1981-08-25 11:19:08.870 ,1,0,0.,24.0,0.,24.0
1981-08-25 11:19:32.870 ,0,1,0.,24.0,0.,24.0
1981-08-25 11:19:56.870 ,0,0,0.,24.0,0.,24.0
1981-08-25 11:20:20.870 ,0,1,0.,24.0,0.,24.0
1981-08-25 11:20:44.870 ,0,0,0.,24.0,0.,24.0
1981-08-25 11:21:08.870 ,1,1,0.,24.0,0.,24.0
1981-08-25 11:21:32.870 ,1,0,0.,24.0,0.,24.0
1981-08-25 11:21:56.870 ,2,1,0.,24.0,0.,24.0
1981-08-25 11:22:20.870 ,2,0,0.,24.0,0.,24.0
1981-08-25 11:22:44.870 ,3,1,0.,24.0,0.,24.0
1981-08-25 11:23:08.870 ,3,0,0.,24.0,0.,24.0
1981-08-25 11:23:32.870 ,4,1,0.,24.0,0.,24.0
1981-08-25 11:23:56.870 ,4,0,0.,24.0,0.,24.0
1981-08-25 11:24:20.870 ,5,1,0.,24.0,0.,24.0
1981-08-25 11:24:44.870 ,5,0,0.,24.0,0.,24.0
1981-08-25 11:25:08.870 ,6,1,0.,24.0,0.,24.0
1981-08-25 11:25:32.870 ,6,0,0.,24.0,0.,24.0
1981-08-25 11:25:56.870 ,7,1,0.,24.0,0.,24.0
1981-08-25 11:26:20.870 ,7,0,0.,24.0,0.,24.0
1981-08-25 11:26:44.870 ,7,1,0.,24.0,0.,24.0
1981-08-25 11:27:08.870 ,7,0,0.,24.0,0.,24.0
1981-08-25 11:27:32.870 ,6,1,0.,24.0,0.,24.0
1981-08-25 11:27:56.870 ,6,0,0.,24.0,0.,24.0
1981-08-25 11:28:20.870 ,5,1,0.,24.0,0.,24.0
1981-08-25 11:28:44.870 ,5,0,0.,24.0,0.,24.0
1981-08-25 11:29:08.870 ,4,1,0.,24.0,0.,24.0
1981-08-25 11:29:32.870 ,4,0,0.,24.0,0.,24.0
1981-08-25 11:30:44.870 ,0,0,0.,24.0,0.,24.0
1981-08-25 11:31:08.870 ,0,0,0.,24.0,0.,24.0
1981-08-25 11:31:32.870 ,1,1,0.,24.0,0.,24.0
1981-08-25 11:31:56.870 ,1,0,0.,24.0,0.,24.0
1981-08-25 11:32:20.870 ,0,1,0.,24.0,0.,24.0
1981-08-25 11:32:44.870 ,0,0,0.,24.0,0.,24.0
1981-08-25 11:33:08.870 ,0,1,0.,24.0,0.,24.0
1981-08-25 11:33:32.870 ,0,0,0.,24.0,0.,24.0
1981-08-25 11:33:56.870 ,1,1,0.,24.0,0.,24.0
1981-08-25 11:34:20.870 ,1,0,0.,24.0,0.,24.0
1981-08-25 11:34:44.870 ,2,1,0.,24.0,0.,24.0
1981-08-25 11:35:08.870 ,2,0,0.,24.0,0.,24.0
1981-08-25 11:35:32.870 ,3,1,0.,24.0,0.,24.0
1981-08-25 11:35:56.870 ,3,0,0.,24.0,0.,24.0
1981-08-25 11:36:20.870 ,4,1,0.,24.0,0.,24.0
1981-08-25 11:36:44.870 ,4,0,0.,24.0,0.,24.0
1981-08-25 11:37:08.870 ,5,1,0.,24.0,0.,24.0
1981-08-25 11:37:32.870 ,5,0,0.,24.0,0.,24.0
1981-08-25 11:37:56.870 ,6,1,0.,24.0,0.,24.0
1981-08-25 11:38:20.870 ,6,0,0.,24.0,0.,24.0
1981-08-25 11:38:44.870 ,7,1,0.,24.0,0.,24.0
1981-08-25 11:39:08.870 ,7,0,0.,24.0,0.,24.0
1981-08-25 11:39:32.870 ,7,1,0.,24.0,0.,24.0
1981-08-25 11:39:56.870 ,0,0,0.,24.0,0.,24.0
1981-08-25 11:40:32.270 ,0,0,0.,24.0,0.,24.0
1981-08-25 11:40:44.870 ,0,0,0.,24.0,0.,24.0
1981-08-25 11:41:08.870 ,5,1,0.,24.0,0.,24.0
1981-08-25 11:41:32.870 ,5,0,0.,24.0,0.,24.0
1981-08-25 11:41:56.870 ,4,1,0.,24.0,0.,24.0
1981-08-25 11:42:20.870 ,4,0,0.,24.0,0.,24.0
1981-08-25 11:42:44.870 ,3,1,0.,24.0,0.,24.0
1981-08-25 11:43:08.870 ,3,0,0.,24.0,0.,24.0
1981-08-25 11:43:32.870 ,2,1,0.,24.0,0.,24.0
1981-08-25 11:43:56.870 ,2,0,0.,24.0,0.,24.0
1981-08-25 11:44:20.870 ,1,1,0.,24.0,0.,24.0
1981-08-25 11:44:44.870 ,1,0,0.,24.0,0.,24.0
1981-08-25 11:45:08.870 ,0,1,0.,24.0,0.,24.0
1981-08-25 11:45:56.870 ,0,0,0.,24.0,0.,24.0
1981-08-25 11:46:20.870 ,0,0,0.,24.0,0.,24.0
1981-08-25 11:46:44.870 ,1,1,0.,24.0,0.,24.0
1981-08-25 11:47:08.870 ,1,0,0.,24.0,0.,24.0
1981-08-25 11:47:32.870 ,2,1,0.,24.0,0.,24.0
1981-08-25 11:47:56.870 ,0,0,0.,24.0,0.,24.0
1981-08-25 11:56:21.470 ,0,0,0.,24.0,0.,24.0
1981-08-25 11:56:44.870 ,0,0,0.,24.0,0.,24.0
1981-08-25 11:57:08.870 ,1,1,0.,24.0,0.,24.0
1981-08-25 11:57:32.870 ,1,0,0.,24.0,0.,24.0
1981-08-25 11:57:56.870 ,0,1,0.,24.0,0.,24.0
1981-08-25 11:58:20.870 ,0,0,0.,24.0,0.,24.0
1981-08-25 11:58:44.870 ,0,1,0.,24.0,0.,24.0
1981-08-25 11:59:08.870 ,0,0,0.,24.0,0.,24.0
1981-08-25 11:59:32.870 ,1,1,0.,24.0,0.,24.0
1981-08-25 11:59:56.870 ,1,0,0.,24.0,0.,24.0
1981-08-25 12:00:20.870 ,2,1,0.,24.0,0.,24.0
